Regional Weather Roundup
Issued by NWS

Home | Current Version | Previous Version | Graphics & Text | Print | Product List | Glossary On
Versions: 1 2 3 4 5 6 7 8 9 10 11 12 13 14 15 16 17 18 19 20 21 22 23 24 25 26 27 28 29 30 31 32 33 34 35 36 37 38 39 40 41 42 43 44 45 46 47 48 49 50
000
ASUS43 KBIS 010410
RWRND

NORTH DAKOTA REGIONAL WEATHER ROUNDUP
NATIONAL WEATHER SERVICE BISMARCK ND
1100 PM CDT FRI JUL 31 2015

NOTE: "FAIR" INDICATES FEW OR NO CLOUDS BELOW 12,000 FEET WITH NO
SIGNIFICANT WEATHER AND/OR OBSTRUCTIONS TO VISIBILITY.


NDZ001>003-009>011-017-010500-
NORTHWEST NORTH DAKOTA

CITY           SKY/WX    TMP DP  RH WIND       PRES   REMARKS
WILLISTON      PTCLDY    73  49  42 SE3       30.02R
MINOT          CLEAR     62  52  69 CALM      30.01S
MINOT AFB      CLEAR     60  54  81 SW3       30.00S
$$

NDZ018>021-031>035-040>046-010500-
SOUTHWEST NORTH DAKOTA

CITY           SKY/WX    TMP DP  RH WIND       PRES   REMARKS
BISMARCK       CLEAR     68  56  65 NE6       30.03S
DICKINSON      CLEAR     64  51  62 E9        30.04R
GARRISON         N/A     62  56  80 S3        30.03R
HETTINGER ARPT CLEAR     70  47  43 SE8       30.07R
$$

NDZ004>008-012>016-024-026-027-054-010500-
NORTHEAST NORTH DAKOTA

CITY           SKY/WX    TMP DP  RH WIND       PRES   REMARKS
GRAND FORKS    CLEAR     59  53  80 W7        29.97S
GRND FRKS AFB  CLEAR     60  52  77 NW6       29.98S
DEVILS LAKE    CLEAR     63  52  67 SW3       30.01R
$$

NDZ022-023-025-028>030-036>039-047>053-010500-
SOUTHEAST NORTH DAKOTA

CITY           SKY/WX    TMP DP  RH WIND       PRES   REMARKS
FARGO          CLEAR     64  57  78 CALM      29.99R
JAMESTOWN      CLEAR     64  59  83 NE3       30.02S
$$




USA.gov is the U.S. government's official web portal to all federal, state and local government web resources and services.